Find Starlink 34462

NORAD ID: 64493 Int'l Des: 2025-133 Owner: SPXS Country: US Constellation: starlink operational
LEOCIRCULAR

リアルタイム位置

3D地球を読み込み中...

Starlink 34462について

説明を読み込み中...

次回通過

Passes for default location (London). Set your location on the main map for personalized predictions.

高度履歴

Loading altitude history...

軌道要素

1 64493U 25133X 26106.79996352 .00010276 00000-0 35859-3 0 9994
2 64493 53.1599 299.7452 0001522 109.0409 251.0757 15.30200848 47022
Epoch: Apr 16, 2026 • Age: 7 hours

現在のステータス

高度 483.0 km
速度 7.62 km/s
衛星直下点 -25.74°S, 101.75°W
打ち上げ日 Jun 23, 2025
運用期間 0.8 years
タイプ internet

技術仕様

分類 Payload
質量 575.00 kg
乾燥質量 530.00 kg
総質量 575.00 kg
長さ 0.30 m
直径 4.10 m
スパン 29.00 m
形状 Box + pan
製造者 SPXS
バスタイプ Starlink V2MO
フェーズステータス In Orbit
所有者/国 SPXS/US

Most Searched